FW0956 Weather Reports


time (UTC)temp
F
wind
direction
speed
knots
gust
knots
rain 1hr
in
rain 24hr
in
rain mn
in
humidity
%
barometer
mb
20260506134645 54 172 1.7 4.3 0.03 0.16 0.16 100 1006.6
20260506133633 55 204 0.9 2.6 0.02 0.15 0.15 100 1006.8
20260506132620 54 230 0.0 2.6 0.02 0.15 0.15 100 1007.0
20260506131644 54 227 0.9 1.7 0.02 0.14 0.14 100 1007.0
20260506130611 54 227 0.0 1.7 0.02 0.13 0.13 99 1007.0
20260506125608 54 218 0.9 1.7 0.03 0.13 0.13 99 1006.8
20260506124625 54 185 0.9 4.3 0.04 0.13 0.13 99 1006.8
20260506123612 55 171 0.9 2.6 0.06 0.13 0.13 99 1006.9
20260506122603 55 253 0.0 0.9 0.08 0.13 0.13 99 1006.9
20260506121624 54 253 0.0 0.0 0.09 0.12 0.12 99 1006.9
20260506120645 54 253 0.0 0.0 0.09 0.11 0.11 98 1007.3
20260506115643 54 253 0.0 1.7 0.08 0.10 0.10 98 1007.4
20260506113607 54 253 0.0 0.9 0.05 0.07 0.07 97 1007.4
20260506111618 54 253 0.0 0.0 0.02 0.03 0.03 96 1007.4
20260506110635 54 253 0.0 0.9 0.02 0.02 0.02 95 1007.0
20260506105630 54 253 0.9 1.7 0.02 0.02 0.02 94 1006.9
20260506103605 55 253 0.0 0.9 0.02 0.03 0.02 93 1006.9
20260506102630 55 253 0.0 0.0 0.01 0.02 0.01 92 1006.9
20260506101632 55 253 0.0 0.9 0.01 0.02 0.01 92 1006.9
20260506100617 55 253 0.9 0.9 0.00 0.01 0.00 91 1007.2
20260506095641 56 253 0.0 0.9 0.00 0.01 0.00 89 1006.9
20260506094634 56 253 0.0 0.0 0.00 0.01 0.00 88 1006.9
20260506093620 56 253 0.0 0.0 0.00 0.01 0.00 87 1006.7
20260506092636 56 253 0.0 1.7 0.00 0.01 0.00 86 1007.1
20260506091644 57 253 0.0 1.7 0.00 0.01 0.00 84 1007.1
20260506090611 58 253 0.0 1.7 0.00 0.01 0.00 81 1007.0
20260506085619 58 253 0.0 0.9 0.00 0.01 0.00 77 1007.1
20260506084614 59 253 0.0 1.7 0.00 0.01 0.00 74 1007.1
20260506082630 60 266 0.9 8.7 0.00 0.01 0.00 70 1007.7
20260506081639 60 240 2.6 7.0 0.00 0.01 0.00 69 1007.7
20260506080600 60 233 1.7 6.1 0.00 0.01 0.00 68 1007.5
20260506072611 62 267 3.5 17.4 0.00 0.04 0.00 63 1007.8
20260506071601 62 268 5.2 13.9 0.00 0.04 0.00 62 1007.8
20260506070600 62 275 5.2 10.4 0.00 0.04 0.00 59 1008.0
20260506061610 58 298 0.0 0.9 0.00 0.04 0.00 68 1008.0
20260506060613 59 328 0.0 0.0 0.00 0.04 0.00 66 1008.0
20260506050603 59 328 0.0 0.9 0.00 0.04 0.00 65 1008.5
20260506044638 59 328 0.0 0.9 0.00 0.04 0.00 67 1008.6
20260506043622 59 328 0.0 0.0 0.00 0.04 0.00 68 1008.6
20260506042612 58 328 0.0 0.9 0.00 0.04 0.00 70 1008.7
20260506041634 58 328 0.0 0.0 0.00 0.04 0.00 71 1008.7
20260506040634 58 328 0.0 0.0 0.00 0.04 0.00 69 1008.7
20260506035618 58 328 0.0 0.0 0.00 0.04 0.04 70 1008.5
20260506032604 59 328 0.0 0.9 0.00 0.04 0.04 71 1008.4
20260506030626 59 328 0.0 0.0 0.00 0.04 0.04 73 1008.5
20260506025645 59 328 0.0 0.0 0.00 0.04 0.04 72 1008.6
20260506024622 59 328 0.0 0.0 0.00 0.04 0.04 72 1008.6
20260506023643 59 328 0.0 0.0 0.00 0.04 0.04 72 1008.8
20260506021622 60 328 0.0 2.6 0.00 0.04 0.04 71 1008.7
20260506020622 61 328 0.0 0.9 0.00 0.04 0.04 69 1008.5
20260506015631 61 328 0.9 1.7 0.00 0.04 0.04 69 1008.5
20260506013633 62 328 2.6 3.5 0.00 0.04 0.04 67 1008.4
20260506012637 63 260 0.0 1.7 0.00 0.04 0.04 64 1008.2
20260506011617 64 260 0.0 0.9 0.00 0.04 0.04 62 1008.2
20260506004635 66 208 0.0 4.3 0.00 0.04 0.04 56 1008.2
20260506003640 67 212 1.7 6.1 0.00 0.04 0.04 55 1008.0
20260506002645 67 237 0.9 8.7 0.00 0.04 0.04 54 1007.8
20260506001637 68 239 1.7 7.0 0.00 0.04 0.04 54 1007.8
20260506000640 68 264 4.3 10.4 0.00 0.04 0.04 55 1007.9
20260505235611 68 256 2.6 12.2 0.00 0.04 0.04 55 1007.8
20260505234630 68 241 3.5 7.0 0.00 0.04 0.04 55 1007.8
20260505233604 68 227 2.6 8.7 0.00 0.04 0.04 55 1007.7
20260505232640 68 255 1.7 4.3 0.00 0.04 0.04 56 1007.5
20260505231604 68 249 2.6 6.1 0.00 0.04 0.04 55 1007.5
20260505230634 69 234 1.7 9.6 0.00 0.04 0.04 54 1007.4
20260505225628 69 243 3.5 11.3 0.00 0.04 0.04 53 1007.7
20260505224629 68 230 2.6 8.7 0.00 0.04 0.04 53 1007.7
20260505223606 68 245 3.5 10.4 0.00 0.04 0.04 54 1007.8
20260505222602 68 270 3.5 8.7 0.00 0.04 0.04 56 1007.8
20260505221630 69 270 3.5 10.4 0.00 0.04 0.04 55 1007.8
20260505220638 69 252 2.6 11.3 0.00 0.04 0.04 54 1007.7
20260505215603 69 257 3.5 13.9 0.00 0.04 0.04 54 1007.7
20260505214608 69 260 1.7 8.7 0.00 0.04 0.04 55 1007.7
20260505213643 68 265 2.6 10.4 0.00 0.04 0.04 55 1007.7
20260505212619 68 274 5.2 15.6 0.00 0.04 0.04 55 1007.7
20260505211629 68 251 1.7 10.4 0.00 0.04 0.04 56 1007.7
20260505210644 67 266 2.6 7.8 0.00 0.04 0.04 59 1007.6
20260505205636 67 248 1.7 7.0 0.00 0.04 0.04 60 1007.6
20260505204605 66 262 2.6 7.0 0.00 0.04 0.04 62 1007.6
20260505203644 69 272 4.3 12.2 0.00 0.04 0.04 59 1007.7
20260505202632 72 245 4.3 12.2 0.00 0.04 0.04 43 1007.1
20260505201646 72 234 2.6 13.9 0.00 0.04 0.04 43 1007.1
20260505200618 72 240 5.2 10.4 0.00 0.04 0.04 43 1007.2
20260505194636 71 237 4.3 8.7 0.00 0.04 0.04 46 1007.3
20260505192611 72 221 6.1 12.2 0.00 0.04 0.04 42 1007.6
20260505191604 72 238 6.1 16.5 0.00 0.04 0.04 42 1007.6
20260505190628 72 244 7.8 20.9 0.00 0.04 0.04 41 1007.5
20260505185611 72 251 4.3 11.3 0.00 0.04 0.04 43 1007.3
20260505183600 73 202 4.3 17.4 0.00 0.04 0.04 40 1007.2
20260505182629 74 238 6.1 19.1 0.00 0.04 0.04 41 1007.2
20260505181627 74 203 8.7 22.6 0.00 0.04 0.04 39 1007.2
20260505175620 73 218 9.6 20.9 0.00 0.04 0.04 39 1007.8
20260505174633 73 219 8.7 18.2 0.00 0.04 0.04 39 1007.8
20260505173625 72 224 7.0 24.3 0.00 0.04 0.04 41 1007.8
20260505172613 72 247 6.1 19.1 0.00 0.04 0.04 44 1008.0
20260505171600 72 243 7.0 19.1 0.00 0.04 0.04 43 1008.0
20260505170621 71 248 7.0 17.4 0.00 0.04 0.04 44 1008.2
20260505165623 71 224 9.6 26.1 0.00 0.04 0.04 44 1008.3
20260505164645 71 222 10.4 23.5 0.00 0.04 0.04 42 1008.3
20260505163602 70 225 9.6 20.9 0.00 0.04 0.04 47 1008.4
20260505162601 70 226 6.1 18.2 0.00 0.04 0.04 47 1008.5
20260505161606 71 226 8.7 16.5 0.00 0.04 0.04 47 1008.5
20260505160625 71 238 4.3 13.9 0.00 0.04 0.04 50 1008.7
20260505152613 69 242 7.0 20.9 0.00 0.04 0.04 51 1009.2
20260505151640 68 232 4.3 13.0 0.00 0.04 0.04 54 1009.2
20260505150605 68 208 9.6 15.6 0.00 0.04 0.04 52 1009.1
20260505140613 69 217 6.1 13.0 0.00 0.04 0.04 56 1008.8